Stündliche Wetter Aba

Heute, 22 Juni, Dienstag

Zeit Temperatur Niederschläge Wind Luftdruck Luftfeuchtigkeit
00:00 +25°C° 1.8 mm 1 m/S 755 mmHg 97%
01:00 +25°C° 1.6 mm 1 m/S 754 mmHg 97%
02:00 +24°C° 1.6 mm 2 m/S 754 mmHg 97%
03:00 +24°C° 1.6 mm 2 m/S 753 mmHg 97%
04:00 +24°C° 0.1 mm 2 m/S 754 mmHg 97%
05:00 +24°C° 0.1 mm 1 m/S 754 mmHg 97%
06:00 +23°C° 0.1 mm 0 m/S 755 mmHg 97%
07:00 +25°C° 0.7 mm 1 m/S 755 mmHg 94%
08:00 +26°C° 0.7 mm 1 m/S 755 mmHg 91%
09:00 +26°C° 0.7 mm 2 m/S 756 mmHg 88%
10:00 +27°C° 0.9 mm 2 m/S 755 mmHg 86%
11:00 +27°C° 0.9 mm 3 m/S 755 mmHg 84%
12:00 +27°C° 0.9 mm 4 m/S 755 mmHg 81%
13:00 +27°C° 0.1 mm 4 m/S 754 mmHg 80%
14:00 +28°C° 0.1 mm 3 m/S 754 mmHg 79%
15:00 +28°C° 0.1 mm 3 m/S 753 mmHg 78%
16:00 +27°C° 0 mm 3 m/S 753 mmHg 82%
17:00 +26°C° 0 mm 2 m/S 753 mmHg 85%
18:00 +26°C° 0 mm 2 m/S 753 mmHg 89%
19:00 +25°C° 0 mm 2 m/S 754 mmHg 90%
20:00 +25°C° 0 mm 2 m/S 754 mmHg 91%
21:00 +25°C° 0 mm 2 m/S 755 mmHg 92%
22:00 +25°C° 0 mm 1 m/S 755 mmHg 92%
23:00 +25°C° 0 mm 1 m/S 755 mmHg 93%

Morgen, 23 Juni, Mittwoch

Zeit Temperatur Niederschläge Wind Luftdruck Luftfeuchtigkeit
00:00 +25°C° 0 mm 1 m/S 754 mmHg 94%
01:00 +25°C° 0 mm 1 m/S 754 mmHg 93%
02:00 +25°C° 0 mm 1 m/S 754 mmHg 93%
03:00 +25°C° 0 mm 1 m/S 753 mmHg 93%
04:00 +25°C° 0 mm 1 m/S 754 mmHg 92%
05:00 +25°C° 0 mm 1 m/S 754 mmHg 92%
06:00 +25°C° 0 mm 1 m/S 754 mmHg 92%
07:00 +26°C° 0.2 mm 1 m/S 755 mmHg 86%
08:00 +27°C° 0.2 mm 1 m/S 755 mmHg 80%
09:00 +29°C° 0.2 mm 2 m/S 755 mmHg 75%
10:00 +29°C° 1.4 mm 1 m/S 755 mmHg 75%
11:00 +29°C° 1.4 mm 1 m/S 754 mmHg 75%
12:00 +29°C° 1.4 mm 1 m/S 754 mmHg 75%
13:00 +28°C° 2 mm 1 m/S 754 mmHg 80%
14:00 +27°C° 2 mm 1 m/S 753 mmHg 84%
15:00 +27°C° 2 mm 1 m/S 753 mmHg 88%
16:00 +26°C° 2.7 mm 1 m/S 753 mmHg 90%
17:00 +25°C° 2.7 mm 1 m/S 753 mmHg 93%
18:00 +25°C° 2.7 mm 2 m/S 753 mmHg 95%
19:00 +25°C° 7.7 mm 2 m/S 754 mmHg 96%
20:00 +25°C° 7.7 mm 2 m/S 754 mmHg 97%
21:00 +24°C° 7.7 mm 1 m/S 755 mmHg 97%
22:00 +24°C° 1.4 mm 1 m/S 755 mmHg 97%
23:00 +24°C° 1.4 mm 2 m/S 754 mmHg 97%

übermorgen, 24 Juni, Donnerstag

Zeit Temperatur Niederschläge Wind Luftdruck Luftfeuchtigkeit
00:00 +24°C° 1.4 mm 2 m/S 754 mmHg 97%
01:00 +24°C° 0 mm 1 m/S 754 mmHg 97%
02:00 +24°C° 0 mm 1 m/S 754 mmHg 97%
03:00 +22°C° 0 mm 0 m/S 754 mmHg 96%
04:00 +22°C° 0 mm 0 m/S 754 mmHg 96%
05:00 +22°C° 0 mm 0 m/S 754 mmHg 96%
06:00 +25°C° 0 mm 1 m/S 755 mmHg 95%
07:00 +25°C° 0.4 mm 1 m/S 755 mmHg 93%
08:00 +26°C° 0.4 mm 1 m/S 755 mmHg 91%
09:00 +26°C° 0.4 mm 1 m/S 756 mmHg 89%
10:00 +26°C° 0.7 mm 1 m/S 755 mmHg 88%
11:00 +27°C° 0.7 mm 1 m/S 755 mmHg 87%
12:00 +27°C° 0.7 mm 1 m/S 754 mmHg 86%
13:00 +26°C° 0.6 mm 1 m/S 754 mmHg 88%
14:00 +26°C° 0.6 mm 1 m/S 754 mmHg 90%
15:00 +26°C° 0.6 mm 1 m/S 753 mmHg 91%
16:00 +26°C° 0.2 mm 1 m/S 754 mmHg 92%
17:00 +25°C° 0.2 mm 1 m/S 754 mmHg 94%
18:00 +25°C° 0.2 mm 1 m/S 754 mmHg 95%
19:00 +25°C° 0.1 mm 1 m/S 754 mmHg 95%
20:00 +23°C° 0.1 mm 0 m/S 755 mmHg 95%
21:00 +23°C° 0.1 mm 0 m/S 755 mmHg 96%
22:00 +23°C° 0 mm 0 m/S 755 mmHg 96%
23:00 +22°C° 0 mm 0 m/S 755 mmHg 96%

25 Juni, Freitag

Zeit Temperatur Niederschläge Wind Luftdruck Luftfeuchtigkeit
00:00 +22°C° 0 mm 0 m/S 755 mmHg 96%
01:00 +22°C° 0 mm 0 m/S 754 mmHg 96%
02:00 +22°C° 0 mm 0 m/S 754 mmHg 97%
03:00 +22°C° 0 mm 0 m/S 754 mmHg 97%
04:00 +22°C° 0 mm 0 m/S 754 mmHg 96%
05:00 +22°C° 0 mm 0 m/S 754 mmHg 95%
06:00 +22°C° 0 mm 0 m/S 755 mmHg 95%
07:00 +23°C° 0 mm 0 m/S 755 mmHg 90%
08:00 +24°C° 0 mm 0 m/S 756 mmHg 85%
09:00 +26°C° 0 mm 0 m/S 756 mmHg 80%
10:00 +26°C° 0 mm 0 m/S 756 mmHg 79%
11:00 +26°C° 0 mm 0 m/S 755 mmHg 78%
12:00 +26°C° 0 mm 0 m/S 755 mmHg 76%
13:00 +29°C° 0 mm 1 m/S 754 mmHg 73%
14:00 +30°C° 0 mm 1 m/S 753 mmHg 69%
15:00 +30°C° 0 mm 1 m/S 753 mmHg 66%
16:00 +29°C° 0.2 mm 1 m/S 753 mmHg 72%
17:00 +28°C° 0.2 mm 1 m/S 753 mmHg 78%
18:00 +27°C° 0.2 mm 2 m/S 754 mmHg 84%
19:00 +26°C° 0.1 mm 1 m/S 754 mmHg 87%
20:00 +26°C° 0.1 mm 1 m/S 754 mmHg 89%
21:00 +23°C° 0.1 mm 0 m/S 754 mmHg 92%
22:00 +25°C° 0 mm 1 m/S 754 mmHg 92%
23:00 +25°C° 0 mm 1 m/S 754 mmHg 93%

26 Juni, Samstag

Zeit Temperatur Niederschläge Wind Luftdruck Luftfeuchtigkeit
00:00 +25°C° 0 mm 1 m/S 754 mmHg 94%
01:00 +25°C° 0 mm 1 m/S 754 mmHg 94%
02:00 +25°C° 0 mm 1 m/S 754 mmHg 94%
03:00 +23°C° 0 mm 0 m/S 753 mmHg 94%
04:00 +23°C° 0 mm 0 m/S 754 mmHg 94%
05:00 +23°C° 0 mm 0 m/S 754 mmHg 93%
06:00 +23°C° 0 mm 0 m/S 754 mmHg 93%
07:00 +24°C° 0 mm 0 m/S 755 mmHg 89%
08:00 +25°C° 0 mm 0 m/S 755 mmHg 85%
09:00 +26°C° 0 mm 0 m/S 755 mmHg 81%
10:00 +27°C° 0 mm 0 m/S 754 mmHg 77%
11:00 +27°C° 0 mm 0 m/S 754 mmHg 73%
12:00 +28°C° 0 mm 0 m/S 754 mmHg 70%
13:00 +28°C° 0.2 mm 0 m/S 753 mmHg 68%
14:00 +29°C° 0.2 mm 0 m/S 753 mmHg 65%
15:00 +32°C° 0.2 mm 1 m/S 752 mmHg 63%
16:00 +30°C° 0.4 mm 1 m/S 752 mmHg 69%
17:00 +29°C° 0.4 mm 1 m/S 753 mmHg 76%
18:00 +27°C° 0.4 mm 1 m/S 753 mmHg 83%
19:00 +27°C° 0.1 mm 2 m/S 753 mmHg 86%
20:00 +26°C° 0.1 mm 2 m/S 754 mmHg 89%
21:00 +26°C° 0.1 mm 2 m/S 754 mmHg 92%
22:00 +26°C° 0 mm 2 m/S 754 mmHg 93%
23:00 +26°C° 0 mm 2 m/S 753 mmHg 94%

27 Juni, Sonntag

Zeit Temperatur Niederschläge Wind Luftdruck Luftfeuchtigkeit
00:00 +25°C° 0 mm 2 m/S 753 mmHg 95%
01:00 +25°C° 0 mm 2 m/S 753 mmHg 95%
02:00 +25°C° 0 mm 2 m/S 752 mmHg 96%
03:00 +25°C° 0 mm 1 m/S 752 mmHg 96%
04:00 +25°C° 0.4 mm 1 m/S 753 mmHg 95%
05:00 +26°C° 0.4 mm 1 m/S 753 mmHg 93%
06:00 +26°C° 0.4 mm 1 m/S 754 mmHg 92%
07:00 +27°C° 0.9 mm 1 m/S 754 mmHg 85%
08:00 +29°C° 0.9 mm 1 m/S 755 mmHg 79%
09:00 +30°C° 0.9 mm 1 m/S 755 mmHg 72%
10:00 +31°C° 0.4 mm 1 m/S 754 mmHg 69%
11:00 +31°C° 0.4 mm 2 m/S 754 mmHg 66%
12:00 +32°C° 0.4 mm 2 m/S 753 mmHg 64%
13:00 +31°C° 2.2 mm 2 m/S 753 mmHg 68%
14:00 +30°C° 2.2 mm 2 m/S 752 mmHg 72%
15:00 +30°C° 2.2 mm 2 m/S 752 mmHg 76%
16:00 +29°C° 2.6 mm 2 m/S 752 mmHg 80%
17:00 +27°C° 2.6 mm 2 m/S 753 mmHg 84%
18:00 +26°C° 2.6 mm 2 m/S 753 mmHg 89%
19:00 +26°C° 1.5 mm 2 m/S 753 mmHg 90%
20:00 +26°C° 1.5 mm 2 m/S 754 mmHg 91%
21:00 +26°C° 1.5 mm 3 m/S 754 mmHg 93%
22:00 +25°C° 0 mm 2 m/S 754 mmHg 94%
23:00 +25°C° 0 mm 1 m/S 754 mmHg 95%
Mehr zeigen

Wir brauchen deine Erlaubnis

Meteoprog und unser Service Anbieter werden persönliche Daten aufbewahren, so wie Cookies, Geräte Bezeichnung oder ähnliche Technologien von deinem Gerät und Prozess, so wie Persönliche Daten Inhalte und Werbungen, genauso wie social Media und den Verkehr zu analysieren.

  • Aufbewahrung und/oder Zugang zu deiner Geräte Informationen.

    Cookies, Geräte Bezeichnung oder andere Informationen, können aufbewahrt oder Zugang zu deinem Gerät erhalten, für den Grund, der oben angegeben wird.

  • Personalisierte Werbung und Inhalte, Messungen, Einblick in das Publikum und Produkt Entwicklung.

    Werbungen und Inhalte können personalisiert werden, basierend auf ein Profil. Mehr Daten können besser personalisierte Werbungen und Inhalte hinzufügen. Werbung und Inhalte können gezeigt und gemessen werden. Einblicke über das Publikum, welche die Werbung gesehen haben und den Inhalt, können abgeleitet werden. So wie Daten können genutzt werden, um es zu verbessern oder die Benutzer Erfahrung zu verbessern das System und die Software.

Wenn du “Ich stimme zu” klickst, erlaubst du uns, die Cookies zu benutzen die Geräte Bezeichnung, den Web oder ähnliche Technologien zu benutzen. Deine Settings, können in deinem Gerät bei deinem Browser geändert werden.

Für den bestimmten Zweck, berechtigten Interessen beruhen darauf, mehr als auf den Inhalt. Du kannst mehr darüber in unseren Privaten und Cookie Politik lesen.